Location: Burgberg
(50.1428°N, 11.0671°E)
Time: 17:36:25
(UTC+00:00)

Cosmos 1697 Rocket - Pass Details

Date: 26 January 2020
Orbit: 833 x 843 km, 71.0° (Epoch: 19 February)

Event Time Altitude Azimuth Distance (km) Brightness Sun altitude
Exits shadow 03:28:57 35° 28° (NNE) 1,332 3.9 -33.3°
Drops below altitude 10° 03:32:05 10° 29° (NNE) 2,455 5.5 -32.8°
Sets 03:34:32 0° 30° (NNE) 3,394 6.3 -32.4°
